THOR ABLESTAR DEB, 119

Orbit data source: Space-Track

THOR ABLESTAR DEB, 119 is space debris in LEO originally from a launch on Thu, 29 Jun 1961 UTC launched from the Air Force Eastern Test Range (AFETR). Debris objects in space refer to the collection of defunct objects orbiting the Earth. Examples of debris include non-operational satellites, rocket bodies, and fragments generated from explosions, collisions, or faulty payload assembly.

Loading next visibility...
Identifier
119, 1961-015D
Orbit
LEO
Country
Flag of USUS
Related business
Manufacturer
Unknown
Mission
Spacecraft
Bus & Motor
Unknown
Mass
Unknown
Launch date (UTC)
1961-06-29 (65 years ago)
Launch vehicle
Unknown
Launch site
Air Force Eastern Test Range (AFETR)
Object type
Payload
Rocket body
Debris
Shape & HBR
Unknown shape, 0.2 m
Radar Cross Section
Medium (>0.1 m² and <1 m²)

Expand to show TLE details & history
Last TLE update: 7 hours ago

TLE from 7 hours ago
0 THOR ABLESTAR DEB
1 00119U 61015D   26044.90092457  .00001321  00000-0  54396-3 0  9993
2 00119  66.7284 349.3002 0102621 345.3189  14.4932 14.27166580340721
Epoch: 2026-02-13T21:37Z
TLE epoch observation values (Epoch: 2026-02-13T21:37:19.882Z)
Latitude
-0.00003°
Longitude
-118.96434°
Altitude
732.033 km
Speed
7.527 km/s
True Right ascension
23h 17m 12s
True Declination
0° 00' 00"
Sunlit
Object was in daylight at epoch
Visualization orbit readout
Latitude
Unknown
Longitude
Unknown
Altitude
Unknown
Speed
Unknown
Apparent Right ascension
Unknown
Apparent Declination
Unknown
Sunlit
N/A
Visualization observer readout
Local Sidereal Time
06:47:45
Azimuth
Unknown
Elevation
Unknown
Doppler factor
Unknown
Orbital elements
Apogee altitude
873.25 km
Perigee altitude
725.932 km
Semi-major axis
7,177.728 km
Eccentricity
0.01026
Inclination
66.7284°
RAAN
349.3002°
Arg. of periapsis
345.3189°
True anomaly
14.7912°
Mean anomaly
14.4932°
Eccentric anomaly
14.64183°
Mean motion
3.56913 °/min
Orbital period
100.86 mins
BSTAR
0.00054396
Loading maneuver chart data...
Computing Atmospheric mass density...

Documentation

Showing up to 5 results
|